Location: ?????
(31.8092°N, 35.2590°E)
Time: 04:07:02
(UTC+00:00)

Lacrosse 5 - Pass Details

Date: 26 October 2021
Orbit: 714 x 724 km, 57.0° (Epoch: 28 August)

Event Time Altitude Azimuth Distance (km) Brightness Sun altitude
Exits shadow 01:16:51 31° 50° (NE) 1,247 3.4 -33.2°
Drops below altitude 10° 01:21:05 10° 107° (ESE) 2,192 5.1 -32.3°
Sets 01:23:41 0° 117° (ESE) 3,108 5.9 -31.8°
